Wind_Speed
14 14 13 14 16 15 15 15 15 14 12 13 13 12 12 11 12 11 11 10 11 11 10 9 8 8 8 7 7 7 7 7 7 7 6 6 6 6 5 6 7 7 7 7 7 7 7 7 8
13 13 12 13 15 15 15 15 14 13 12 12 12 12 11 10 10 10 10 11 11 10 9 8 8 8 7 7 7 6 6 6 6 6 6 6 6 6 5 5 6 6 6 6 6 6 7 7 7
13 13 13 14 14 14 15 15 14 13 12 11 11 11 10 10 10 10 10 11 11 10 9 8 8 8 8 7 7 6 6 6 6 5 6 6 6 5 5 6 6 6 6 6 6 6 6 6 6
12 13 14 15 14 15 15 15 14 13 12 11 11 11 10 10 10 10 11 10 10 10 9 8 8 8 8 7 7 6 6 6 5 5 5 6 6 5 5 5 5 5 5 5 5 6 5 6 6
11 13 14 14 14 14 15 15 14 13 13 12 12 11 10 11 11 11 11 11 11 10 9 9 8 8 7 7 6 6 5 5 5 5 5 6 6 5 5 5 4 4 4 5 5 6 6 6 6
11 12 14 13 13 13 15 15 14 13 13 13 12 12 11 12 11 11 12 12 11 10 10 9 9 8 7 7 6 5 5 4 4 4 4 5 5 5 5 4 4 4 4 4 5 5 5 5 5
7 10 12 12 12 12 14 14 13 13 13 13 12 12 12 12 12 12 12 12 11 11 10 9 9 8 7 7 6 5 5 5 4 4 4 4 4 4 4 4 4 3 4 4 5 5 4 4 4
8 9 11 12 12 13 14 14 13 13 13 13 13 13 12 13 12 12 11 11 11 11 10 9 9 8 8 7 7 6 6 6 5 5 4 4 4 3 4 3 3 3 3 3 4 5 4 3 3
8 10 10 11 12 13 14 13 13 13 13 13 13 13 12 12 12 12 11 11 10 10 11 10 9 9 8 7 7 7 6 6 6 5 4 4 3 3 3 3 3 3 3 3 4 4 4 3 3
8 9 10 11 11 13 13 12 13 13 14 14 14 13 12 13 13 12 12 11 10 10 10 11 10 9 9 8 8 7 7 6 6 5 5 4 3 2 2 2 2 3 3 3 3 3 3 3 2
6 7 8 10 11 12 12 12 13 12 13 14 14 13 13 13 13 13 12 12 11 11 11 11 10 10 11 10 9 8 8 7 6 5 5 5 4 2 2 1 1 2 3 3 3 3 3 3 2
4 5 7 9 10 11 12 12 12 12 12 13 14 14 14 13 13 13 13 13 12 12 12 11 10 11 11 10 10 9 8 7 7 6 5 5 4 3 2 1 1 2 2 2 2 3 2 2 2
5 6 7 8 10 11 11 11 11 11 12 13 13 13 13 13 13 13 14 13 12 12 12 11 11 10 11 11 10 9 8 8 8 7 6 6 5 4 3 2 1 2 2 1 2 2 2 2 2
5 5 6 7 9 11 11 11 10 11 12 12 12 12 12 13 13 13 13 13 13 13 13 12 11 11 11 11 11 10 9 8 8 7 6 6 5 4 3 2 2 1 1 1 1 1 2 2 2
5 3 4 6 8 10 10 9 10 10 11 12 12 11 12 13 13 13 14 13 13 13 12 12 11 10 10 11 11 10 9 9 8 7 7 6 5 4 3 3 2 1 0 1 0 0 1 1 1
5 4 5 6 8 9 8 8 9 10 10 11 12 12 12 12 12 13 14 14 13 12 12 12 11 10 10 10 10 10 10 9 8 8 7 7 6 5 4 2 2 2 1 0 1 1 1 1 2
6 6 5 5 7 8 7 8 9 9 10 10 11 11 12 12 12 12 12 12 12 12 12 12 11 10 10 10 9 9 9 10 8 7 7 7 6 5 5 3 2 2 1 1 1 2 1 1 2
6 6 5 4 5 6 6 7 8 9 10 10 10 10 11 11 12 12 11 11 11 11 12 12 11 10 9 10 10 10 9 9 9 7 7 6 6 6 5 4 4 2 2 1 1 1 2 2 2
8 6 4 2 3 4 5 5 7 8 8 9 9 10 11 11 11 11 11 11 11 11 11 12 12 11 11 10 10 10 10 9 9 8 7 8 7 7 6 5 4 4 3 2 2 2 3 3 3
9 7 5 3 0 2 3 4 5 7 8 8 9 9 10 10 11 11 12 11 10 11 11 11 11 11 11 11 11 10 10 9 9 9 9 9 8 7 6 6 5 4 4 3 3 3 3 3 3
12 9 6 4 4 2 1 3 3 4 5 6 7 8 8 9 10 10 10 10 10 10 10 11 11 10 10 10 10 10 10 10 10 10 9 9 9 8 8 7 6 5 4 4 4 3 3 3 4
13 11 7 7 6 5 3 3 2 2 3 4 5 6 6 7 8 8 8 8 8 9 9 10 10 10 10 10 10 10 10 10 10 10 10 10 9 9 9 8 8 7 6 5 4 4 4 4 5
14 13 11 9 9 8 7 6 4 3 4 4 5 5 6 7 6 6 7 6 7 7 8 9 9 9 9 9 9 9 10 10 10 10 11 11 10 10 9 9 8 8 7 6 5 5 5 6 7
16 15 14 13 13 11 9 8 5 4 4 4 3 3 4 5 5 5 5 4 5 6 7 8 8 9 9 9 9 9 8 9 9 9 10 10 10 10 10 10 9 9 9 7 7 7 7 7 8
20 18 17 17 16 14 12 10 7 5 5 4 4 3 4 4 5 5 5 4 4 5 6 7 7 7 8 8 9 8 8 9 9 9 9 10 10 10 10 10 10 10 10 9 8 8 8 8 9
21 21 20 19 17 15 14 13 9 7 5 5 5 5 5 5 5 4 4 3 3 4 6 6 6 6 6 7 7 7 8 8 8 9 9 9 10 10 10 11 10 10 10 9 9 9 9 10 10
22 22 21 20 18 17 16 14 12 10 8 8 7 7 7 5 4 4 5 4 4 4 6 5 7 6 6 7 7 6 7 8 8 9 9 10 10 10 10 11 11 11 10 10 10 10 10 11 11
23 23 23 22 20 19 18 16 14 12 10 9 8 8 8 7 6 5 5 5 5 5 6 7 7 7 7 7 7 7 7 8 8 9 9 10 10 11 11 11 11 11 11 11 11 11 12 12 12
25 26 25 23 22 21 20 18 15 13 12 11 9 8 8 8 6 7 7 7 7 7 7 7 8 8 8 8 8 7 8 8 9 9 10 10 11 11 11 11 11 11 12 12 12 12 13 13 12
26 26 26 25 24 24 23 20 16 14 14 13 11 10 10 10 9 9 9 8 8 8 8 9 9 9 9 9 9 9 9 9 10 10 10 11 12 12 12 12 12 12 12 13 13 13 13 13 13
Wind_Direction
71 68 64 58 56 52 51 53 55 56 50 48 45 47 50 52 55 57 61 64 67 68 68 68 64 63 66 67 66 68 68 67 71 74 75 82 91 99 110 112 119 125 123 126 135 133 129 129 128
65 63 61 57 51 47 49 50 51 55 54 49 49 49 51 54 57 61 60 60 62 65 64 65 62 64 67 68 64 64 64 64 67 70 72 77 86 88 99 112 120 126 128 127 133 135 133 134 134
61 58 57 55 49 48 50 50 50 50 50 51 51 49 51 53 56 60 60 60 61 59 57 57 59 64 67 70 67 62 61 61 64 67 68 75 85 92 98 107 117 124 129 130 132 133 132 136 140
63 56 53 53 47 47 48 47 48 47 44 48 50 51 51 51 55 58 59 59 60 56 52 55 58 63 67 70 68 62 63 63 65 68 66 69 77 85 94 105 114 121 126 132 139 138 133 136 138
59 53 51 48 43 45 48 46 45 45 43 46 50 51 49 49 56 58 56 55 55 54 53 57 58 62 65 65 65 65 66 63 66 70 71 69 71 74 88 109 110 113 128 133 138 134 131 134 136
55 56 49 44 43 46 46 44 41 41 41 45 50 51 50 49 54 55 54 51 52 54 55 58 58 65 65 63 61 62 63 61 64 68 73 73 73 77 86 100 102 108 117 127 128 132 131 127 133
60 56 43 43 46 46 45 45 42 41 44 45 48 49 51 52 55 54 52 52 53 54 54 57 57 59 61 61 58 57 55 53 54 57 65 75 78 81 85 97 99 104 111 115 120 124 125 126 132
60 56 41 40 45 44 44 43 45 46 45 45 48 50 54 60 60 56 52 52 52 51 50 50 54 55 55 54 49 50 50 51 54 57 62 68 74 81 81 93 104 113 125 119 126 129 128 133 135
65 54 43 44 43 43 44 44 46 47 47 48 50 52 56 60 60 58 54 53 53 51 49 49 52 56 54 52 47 48 52 56 59 63 57 59 75 77 76 94 113 122 129 133 136 136 137 139 140
73 57 47 47 46 43 42 44 48 47 49 51 51 51 54 56 57 57 56 56 56 53 52 53 56 55 53 56 57 55 55 62 61 59 53 55 69 78 79 95 122 128 131 137 136 137 143 141 143
82 66 51 46 45 42 40 44 49 49 48 51 53 51 52 52 54 56 55 55 56 54 55 54 55 56 55 58 61 59 59 59 58 52 48 52 62 79 89 99 110 149 153 151 148 146 151 155 154
103 71 60 51 50 44 43 44 48 51 51 52 52 50 50 50 51 53 53 53 55 55 56 56 58 60 60 61 65 64 64 64 59 55 55 51 55 80 101 85 111 138 156 168 156 155 164 171 161
108 76 69 55 50 52 50 48 50 52 54 55 53 51 48 49 49 50 51 53 54 55 57 59 63 62 62 61 60 61 57 58 55 51 53 52 53 64 83 88 119 131 143 152 153 163 192 206 191
114 80 69 59 54 55 54 51 51 53 54 53 54 53 51 50 50 51 52 53 55 57 57 60 62 62 62 60 60 60 57 53 46 48 50 51 52 62 74 86 109 128 138 145 173 204 204 214 208
133 107 80 65 59 56 55 54 54 55 53 50 50 51 52 49 48 50 50 51 53 54 54 56 59 60 60 60 60 61 59 57 51 50 53 54 57 65 72 81 85 102 176 173 181 203 216 232 229
150 130 102 77 57 52 52 57 55 54 52 49 49 47 44 44 44 47 48 48 50 49 48 50 53 57 60 60 58 57 55 55 53 52 52 52 55 59 53 54 65 67 62 109 223 253 284 297 257
161 135 111 84 56 45 47 52 55 53 50 47 44 42 40 39 41 44 45 45 46 47 47 48 50 53 57 56 53 52 52 54 52 52 50 47 45 41 39 42 33 14 10 341 285 268 280 312 287
173 143 124 86 50 41 47 50 51 51 47 41 37 35 36 37 38 41 42 43 46 48 48 48 49 51 51 49 48 47 49 49 46 47 47 44 39 35 32 28 18 4 342 315 300 299 313 315 298
184 175 162 117 42 31 43 52 48 48 48 37 30 26 29 31 33 35 36 41 48 48 48 49 49 49 49 49 47 46 47 50 51 48 42 38 31 23 20 21 17 10 354 336 319 316 311 307 299
196 205 193 181 282 349 12 29 46 46 44 33 26 24 28 30 29 32 34 46 48 48 48 49 48 47 46 45 43 43 44 43 42 39 35 28 25 25 23 16 14 9 357 345 334 330 326 308 299
200 208 205 209 203 236 312 4 27 53 41 26 19 20 23 24 23 26 33 40 46 48 47 46 45 43 41 41 40 39 37 37 34 32 30 25 25 24 19 17 13 9 6 5 358 351 338 315 305
210 211 214 221 222 231 243 286 333 19 21 17 5 7 16 17 12 17 29 35 37 41 42 42 42 39 37 36 37 38 36 35 33 30 28 27 28 27 22 21 16 9 4 358 355 342 330 317 309
214 216 218 222 227 235 241 250 272 304 335 352 356 358 3 9 4 6 19 28 29 31 35 37 36 35 34 33 33 33 31 30 29 28 28 27 27 26 22 19 17 12 3 354 344 335 323 318 311
215 217 217 223 229 237 240 247 265 287 312 331 347 346 351 355 357 358 3 16 22 22 24 27 29 29 30 30 27 26 26 25 24 24 24 24 25 23 20 16 14 8 2 355 345 338 326 317 312
216 220 222 225 231 237 237 250 265 276 295 301 310 318 323 340 345 354 354 355 10 9 13 19 21 20 23 24 22 22 22 21 22 21 19 19 18 17 14 10 7 3 357 352 346 339 333 324 318
220 222 224 227 234 238 240 250 257 268 275 267 275 283 293 319 335 342 344 334 350 358 358 7 15 12 10 13 14 16 17 16 14 13 11 12 11 9 6 3 359 357 355 350 345 342 338 330 321
221 223 222 226 235 242 243 245 252 258 262 261 267 278 290 305 318 323 328 322 322 336 345 351 356 358 353 355 357 359 358 1 3 4 4 2 2 359 356 355 353 351 348 344 341 340 336 330 322
220 222 220 225 232 237 243 248 257 256 261 257 263 273 287 293 298 304 312 312 316 321 325 325 333 338 338 338 337 335 341 345 348 349 347 345 346 348 348 347 346 347 346 342 338 336 333 329 325
222 223 223 226 231 235 242 248 257 257 259 258 265 272 280 285 284 298 301 301 302 306 314 316 318 321 325 325 321 316 325 332 336 338 340 338 338 338 337 337 338 340 340 337 336 334 333 332 332
222 227 226 228 232 238 245 249 252 258 261 262 265 269 271 280 280 289 291 293 293 297 301 306 310 312 313 316 314 314 313 318 325 328 329 329 329 330 332 331 330 329 330 330 329 327 326 325 327
Height
5908 5907 5907 5907 5905 5904 5903 5902 5901 5900 5900 5898 5897 5896 5895 5895 5895 5896 5892 5890 5889 5888 5888 5888 5887 5887 5886 5886 5886 5885 5885 5884 5884 5884 5883 5883 5882 5882 5882 5882 5882 5882 5882 5882 5883 5883 5884 5884 5885
5910 5909 5910 5909 5906 5906 5905 5904 5903 5903 5901 5899 5898 5898 5897 5896 5895 5894 5892 5891 5890 5890 5890 5889 5888 5888 5887 5887 5887 5886 5886 5885 5885 5884 5884 5884 5883 5883 5882 5882 5883 5883 5883 5883 5884 5884 5884 5885 5885
5912 5911 5911 5909 5908 5908 5907 5906 5905 5904 5903 5901 5901 5900 5898 5897 5896 5895 5894 5893 5892 5891 5891 5890 5889 5889 5888 5888 5888 5887 5886 5886 5886 5885 5885 5884 5884 5884 5883 5883 5884 5884 5884 5884 5884 5885 5885 5886 5886
5914 5913 5912 5911 5909 5909 5908 5907 5906 5905 5904 5903 5902 5901 5899 5899 5897 5896 5895 5894 5893 5893 5892 5891 5890 5890 5889 5889 5888 5888 5887 5887 5887 5886 5886 5885 5885 5885 5885 5884 5885 5885 5885 5885 5885 5885 5886 5886 5887
5916 5915 5913 5912 5911 5910 5909 5908 5907 5906 5905 5904 5903 5902 5901 5900 5898 5897 5896 5895 5894 5894 5893 5892 5891 5891 5890 5890 5889 5888 5888 5888 5887 5887 5886 5886 5886 5886 5885 5885 5885 5885 5885 5885 5886 5886 5886 5887 5887
5918 5916 5915 5914 5913 5912 5911 5910 5909 5908 5907 5906 5905 5904 5902 5901 5900 5898 5898 5897 5896 5895 5894 5893 5892 5892 5891 5890 5890 5889 5889 5888 5888 5887 5887 5887 5887 5886 5886 5886 5886 5886 5886 5886 5886 5886 5887 5887 5887
5919 5917 5916 5916 5915 5914 5913 5912 5911 5909 5908 5907 5906 5905 5904 5902 5901 5900 5899 5898 5897 5896 5895 5894 5893 5893 5892 5891 5890 5890 5889 5889 5888 5888 5887 5887 5887 5887 5887 5887 5887 5886 5886 5886 5886 5887 5887 5887 5887
5919 5920 5919 5918 5917 5916 5915 5914 5912 5911 5910 5909 5907 5906 5905 5904 5903 5901 5900 5900 5899 5898 5896 5896 5895 5894 5893 5892 5891 5891 5890 5889 5889 5888 5888 5888 5887 5887 5887 5887 5887 5887 5887 5887 5887 5887 5887 5888 5888
5921 5922 5921 5920 5919 5917 5916 5915 5914 5912 5911 5910 5908 5907 5907 5906 5905 5903 5902 5901 5900 5899 5898 5897 5896 5895 5894 5893 5892 5891 5890 5890 5889 5889 5888 5888 5888 5888 5888 5888 5887 5887 5887 5887 5887 5887 5888 5888 5888
5922 5923 5922 5921 5920 5919 5918 5917 5916 5914 5913 5911 5910 5909 5908 5907 5906 5905 5904 5903 5902 5901 5899 5898 5897 5896 5895 5894 5893 5892 5891 5890 5890 5889 5889 5888 5888 5888 5888 5888 5888 5888 5888 5888 5888 5888 5888 5888 5888
5924 5924 5923 5922 5921 5920 5919 5918 5917 5916 5914 5914 5912 5911 5910 5909 5908 5907 5905 5904 5903 5902 5900 5899 5898 5897 5896 5895 5893 5892 5892 5892 5891 5890 5889 5889 5889 5888 5888 5888 5888 5888 5888 5888 5888 5888 5888 5888 5888
5925 5925 5924 5923 5923 5922 5921 5919 5919 5918 5917 5916 5914 5913 5912 5911 5909 5908 5907 5905 5904 5903 5902 5901 5899 5898 5897 5896 5895 5894 5893 5893 5892 5891 5890 5890 5889 5889 5889 5888 5888 5888 5888 5888 5888 5888 5888 5888 5888
5926 5925 5925 5924 5924 5923 5922 5921 5921 5919 5918 5917 5916 5915 5914 5913 5911 5910 5908 5907 5905 5904 5903 5902 5901 5899 5898 5897 5896 5895 5894 5893 5893 5892 5891 5891 5890 5890 5889 5889 5888 5888 5888 5888 5888 5888 5888 5888 5887
5927 5926 5926 5926 5925 5924 5924 5923 5923 5921 5920 5919 5918 5917 5916 5914 5913 5911 5910 5908 5907 5906 5905 5903 5902 5901 5900 5899 5897 5896 5895 5894 5893 5893 5892 5891 5891 5890 5890 5889 5889 5888 5888 5888 5888 5887 5887 5887 5887
5927 5927 5927 5927 5926 5926 5926 5925 5924 5923 5922 5921 5920 5919 5918 5916 5915 5913 5911 5910 5909 5908 5907 5905 5903 5902 5901 5900 5899 5898 5897 5896 5895 5894 5893 5892 5891 5891 5890 5890 5889 5888 5888 5888 5887 5887 5887 5887 5886
5927 5928 5928 5928 5927 5927 5928 5926 5925 5924 5923 5922 5921 5920 5919 5918 5916 5915 5913 5912 5911 5909 5908 5906 5905 5904 5903 5902 5900 5899 5898 5897 5896 5895 5894 5893 5892 5891 5890 5890 5889 5889 5888 5888 5887 5887 5887 5886 5886
5927 5928 5928 5928 5928 5928 5928 5927 5926 5925 5924 5924 5923 5922 5921 5919 5918 5916 5915 5913 5912 5911 5909 5908 5906 5905 5904 5903 5902 5901 5900 5899 5897 5896 5895 5894 5893 5892 5891 5890 5890 5889 5888 5888 5887 5887 5886 5886 5885
5927 5927 5928 5928 5928 5929 5929 5928 5927 5926 5925 5925 5924 5923 5922 5921 5919 5918 5916 5915 5913 5912 5911 5909 5908 5906 5905 5904 5903 5902 5901 5900 5899 5898 5897 5895 5894 5893 5891 5890 5890 5889 5888 5887 5887 5886 5886 5885 5885
5926 5926 5928 5928 5928 5928 5928 5928 5928 5927 5926 5926 5925 5924 5923 5922 5921 5919 5917 5915 5914 5913 5912 5911 5909 5908 5907 5906 5905 5904 5902 5901 5900 5898 5897 5896 5895 5893 5892 5891 5889 5889 5888 5887 5886 5885 5885 5884 5884
5924 5926 5927 5927 5928 5928 5928 5928 5928 5928 5927 5927 5926 5925 5924 5923 5921 5920 5918 5916 5916 5915 5913 5912 5911 5910 5909 5907 5906 5905 5904 5902 5901 5899 5898 5896 5895 5893 5892 5891 5889 5888 5887 5886 5885 5885 5884 5884 5883
5923 5925 5926 5926 5927 5927 5928 5928 5928 5928 5927 5927 5926 5925 5924 5924 5922 5921 5919 5918 5917 5916 5915 5914 5912 5911 5910 5909 5908 5906 5905 5903 5902 5900 5899 5897 5895 5893 5892 5890 5889 5888 5887 5886 5885 5884 5883 5882 5882
5921 5923 5924 5925 5925 5926 5927 5926 5927 5926 5927 5926 5926 5925 5925 5924 5922 5921 5920 5919 5918 5917 5916 5915 5914 5912 5911 5910 5909 5907 5906 5905 5903 5901 5899 5897 5895 5894 5892 5890 5889 5887 5886 5885 5884 5883 5882 5881 5880
5919 5921 5922 5923 5923 5924 5925 5925 5926 5926 5926 5926 5926 5925 5924 5924 5923 5921 5920 5919 5919 5918 5917 5915 5914 5913 5912 5911 5910 5908 5907 5905 5904 5902 5900 5898 5896 5894 5892 5890 5889 5887 5886 5884 5883 5882 5881 5880 5879
5917 5918 5919 5920 5921 5922 5923 5923 5924 5925 5925 5925 5925 5925 5924 5924 5923 5922 5921 5920 5919 5918 5917 5916 5915 5914 5912 5911 5910 5908 5907 5905 5904 5902 5900 5898 5896 5894 5892 5890 5889 5887 5885 5884 5882 5881 5880 5878 5877
5913 5915 5916 5917 5917 5919 5921 5921 5923 5923 5923 5923 5923 5923 5923 5923 5922 5921 5920 5920 5919 5918 5917 5916 5915 5914 5913 5911 5910 5908 5907 5906 5904 5902 5901 5899 5896 5894 5892 5890 5888 5886 5885 5883 5881 5880 5878 5877 5875
5909 5911 5913 5915 5915 5917 5918 5918 5921 5920 5920 5921 5921 5922 5922 5922 5921 5921 5920 5919 5918 5918 5917 5915 5915 5914 5912 5911 5910 5908 5907 5906 5904 5902 5900 5898 5896 5894 5892 5890 5888 5886 5884 5882 5880 5879 5877 5875 5873
5905 5907 5910 5911 5912 5913 5914 5916 5917 5917 5918 5918 5919 5919 5920 5920 5920 5919 5919 5918 5917 5917 5916 5914 5913 5913 5912 5911 5909 5908 5907 5905 5904 5902 5900 5898 5896 5893 5891 5889 5887 5885 5883 5881 5879 5878 5876 5874 5871
5901 5903 5905 5907 5908 5909 5910 5912 5913 5914 5915 5916 5916 5917 5917 5918 5918 5918 5917 5917 5916 5916 5915 5914 5913 5912 5911 5910 5909 5907 5906 5904 5903 5901 5899 5897 5895 5892 5890 5888 5885 5883 5881 5879 5878 5876 5874 5871 5869
5896 5898 5900 5902 5904 5905 5907 5910 5911 5911 5912 5913 5913 5914 5915 5915 5915 5915 5915 5915 5915 5914 5913 5912 5912 5911 5910 5908 5907 5906 5905 5903 5902 5900 5897 5895 5893 5891 5889 5886 5884 5882 5880 5878 5876 5874 5871 5869 5867
5890 5893 5895 5898 5900 5902 5903 5908 5907 5908 5908 5909 5910 5911 5911 5912 5912 5913 5913 5913 5912 5911 5911 5911 5910 5909 5908 5906 5905 5904 5902 5901 5899 5898 5896 5893 5891 5889 5887 5884 5882 5880 5878 5876 5873 5871 5869 5867 5864